Location: ČR
(50.0000°N, 15.0000°E)
Time: 07:46:12
(UTC+02:00)

A-11 Canister half - Pass Details

Date: 20 March 2026
Orbit: 1514 x 1685 km, 47.2° (Epoch: 18 April)

Event Time Altitude Azimuth Distance (km) Brightness Sun altitude
Rises 12:01:46 0° 211° (SSW) 4,783 12.2 39.9°
Reaches altitude 10° 12:05:06 10° 204° (SSW) 3,825 12.1 39.9°
Maximum altitude 12:13:48 38° 141° (SE) 2,344 11.2 39.9°
Drops below altitude 10° 12:22:43 10° 78° (ENE) 3,937 11.1 39.8°
Sets 12:26:11 0° 71° (ENE) 4,938 11.5 39.8°
